TimeMST,TemperatureF,Dew PointF,Humidity,Sea Level PressureIn,VisibilityMPH,Wind Direction,Wind SpeedMPH,Gust SpeedMPH,PrecipitationIn,Events,Conditions,WindDirDegrees,DateUTC
12:48 AM,32.0,25.0,75,30.07,-9999.0,West,8.1,-,N/A,,Unknown,260,2014-01-15 07:48:00
1:48 AM,34.0,27.0,75,30.02,-9999.0,West,10.4,-,N/A,,Unknown,270,2014-01-15 08:48:00
2:48 AM,35.1,27.0,72,30.00,-9999.0,West,10.4,-,N/A,,Unknown,280,2014-01-15 09:48:00
3:48 AM,37.0,27.0,67,29.95,-9999.0,West,11.5,-,N/A,,Unknown,270,2014-01-15 10:48:00
4:48 AM,36.0,27.0,70,29.93,-9999.0,West,15.0,-,N/A,,Unknown,270,2014-01-15 11:48:00
5:48 AM,39.0,27.0,62,29.91,-9999.0,Variable,4.6,-,N/A,,Unknown,0,2014-01-15 12:48:00
6:48 AM,39.9,28.9,65,29.88,-9999.0,West,23.0,-,N/A,,Unknown,270,2014-01-15 13:48:00
7:48 AM,41.0,28.0,60,29.88,-9999.0,West,15.0,-,N/A,,Unknown,280,2014-01-15 14:48:00
8:48 AM,-9999,-9999,N/A,29.83,-9999.0,WNW,20.7,-,N/A,,Unknown,290,2014-01-15 15:48:00
9:48 AM,44.1,28.0,53,29.90,-9999.0,WNW,23.0,31.1,N/A,,Unknown,290,2014-01-15 16:48:00
10:48 AM,44.1,28.0,53,29.89,-9999.0,West,12.7,-,N/A,,Unknown,260,2014-01-15 17:48:00
11:48 AM,44.1,28.0,53,29.89,-9999.0,West,20.7,-,N/A,,Unknown,280,2014-01-15 18:48:00
12:48 PM,46.0,28.0,50,29.87,-9999.0,West,17.3,-,N/A,,Unknown,280,2014-01-15 19:48:00
1:48 PM,44.6,-9999,N/A,-9999,-9999.0,WNW,17.3,-,N/A,,Unknown,290,2014-01-15 20:48:00
2:48 PM,43.0,28.9,58,29.88,-9999.0,WNW,19.6,-,N/A,,Unknown,300,2014-01-15 21:48:00
3:48 PM,41.0,30.0,65,29.94,-9999.0,NW,10.4,-,N/A,,Unknown,320,2014-01-15 22:48:00
4:48 PM,42.1,28.0,58,29.98,-9999.0,NW,17.3,-,N/A,,Unknown,320,2014-01-15 23:48:00
5:48 PM,41.0,27.0,57,30.01,-9999.0,NW,25.3,32.2,N/A,,Unknown,320,2014-01-16 00:48:00
6:48 PM,39.9,26.1,58,30.04,-9999.0,NW,20.7,34.5,N/A,,Unknown,310,2014-01-16 01:48:00
7:48 PM,39.9,24.1,53,30.06,-9999.0,NW,28.8,38.0,N/A,,Unknown,320,2014-01-16 02:48:00
8:48 PM,37.9,23.0,55,30.03,-9999.0,NW,28.8,39.1,N/A,,Unknown,320,2014-01-16 03:48:00
9:48 PM,37.0,21.9,54,30.11,-9999.0,NW,24.2,33.4,N/A,,Unknown,310,2014-01-16 04:48:00
10:48 PM,36.0,21.0,55,30.16,-9999.0,NW,27.6,35.7,N/A,,Unknown,310,2014-01-16 05:48:00
11:48 PM,35.1,21.0,57,30.17,-9999.0,NW,25.3,32.2,N/A,,Unknown,310,2014-01-16 06:48:00